| time (UTC) | temp F | wind direction | speed MPH | gust MPH | rain 1hr in | rain 24hr in | rain mn in | humidity % | barometer mb |
| 20260506035503 | 28 | 87 | 2.0 | 6.0 | 0.00 | 0.04 | 0.04 | 93 | 1025.7 |
| 20260506035004 | 28 | 89 | 2.0 | 6.0 | 0.00 | 0.04 | 0.04 | 93 | 1025.6 |
| 20260506034504 | 29 | 87 | 2.0 | 5.0 | 0.00 | 0.04 | 0.04 | 93 | 1025.7 |
| 20260506034003 | 29 | 90 | 2.0 | 5.0 | 0.00 | 0.04 | 0.04 | 93 | 1025.6 |
| 20260506033503 | 29 | 95 | 1.0 | 4.0 | 0.00 | 0.04 | 0.04 | 93 | 1025.4 |
| 20260506033003 | 29 | 94 | 0.0 | 3.0 | 0.00 | 0.04 | 0.04 | 93 | 1025.4 |
| 20260506032503 | 29 | 91 | 0.0 | 3.0 | 0.00 | 0.04 | 0.04 | 93 | 1025.4 |
| 20260506032003 | 29 | 85 | 1.0 | 7.0 | 0.00 | 0.04 | 0.04 | 93 | 1025.3 |
| 20260506031503 | 29 | 85 | 1.0 | 7.0 | 0.00 | 0.04 | 0.04 | 93 | 1025.3 |
| 20260506031003 | 29 | 85 | 2.0 | 7.0 | 0.00 | 0.04 | 0.04 | 93 | 1025.3 |
| 20260506030503 | 29 | 85 | 3.0 | 7.0 | 0.00 | 0.04 | 0.04 | 93 | 1025.1 |
| 20260506030221 | 29 | 85 | 2.0 | 7.0 | 0.00 | 0.04 | 0.04 | 93 | 1025.1 |
| 20260506025503 | 29 | 81 | 1.0 | 4.0 | 0.00 | 0.04 | 0.04 | 93 | 1024.8 |
| 20260506025003 | 29 | 96 | 1.0 | 4.0 | 0.00 | 0.04 | 0.04 | 93 | 1024.7 |
| 20260506024503 | 29 | 130 | 1.0 | 6.0 | 0.00 | 0.04 | 0.04 | 93 | 1024.7 |
| 20260506024003 | 29 | 119 | 1.0 | 6.0 | 0.00 | 0.04 | 0.04 | 93 | 1024.5 |
| 20260506023503 | 29 | 90 | 1.0 | 6.0 | 0.00 | 0.04 | 0.04 | 93 | 1024.4 |
| 20260506023003 | 29 | 92 | 1.0 | 6.0 | 0.00 | 0.04 | 0.04 | 93 | 1024.4 |
| 20260506022503 | 29 | 90 | 2.0 | 7.0 | 0.00 | 0.04 | 0.04 | 93 | 1024.3 |
| 20260506022003 | 29 | 91 | 2.0 | 7.0 | 0.00 | 0.04 | 0.04 | 93 | 1024.2 |
| 20260506021503 | 30 | 107 | 1.0 | 4.0 | 0.00 | 0.04 | 0.04 | 93 | 1024.2 |
| 20260506021220 | 30 | 104 | 1.0 | 4.0 | 0.00 | 0.04 | 0.04 | 93 | 1024.1 |
| 20260506020503 | 30 | 86 | 2.0 | 8.0 | 0.00 | 0.04 | 0.04 | 93 | 1023.9 |
| 20260506020004 | 30 | 86 | 3.0 | 8.0 | 0.00 | 0.04 | 0.04 | 92 | 1023.9 |
| 20260506015503 | 30 | 87 | 3.0 | 8.0 | 0.00 | 0.04 | 0.04 | 92 | 1023.7 |
| 20260506015003 | 30 | 87 | 1.0 | 8.0 | 0.00 | 0.04 | 0.04 | 93 | 1023.6 |
| 20260506014503 | 30 | 109 | 0.0 | 1.0 | 0.00 | 0.04 | 0.04 | 93 | 1023.3 |
| 20260506014003 | 31 | 91 | 0.0 | 2.0 | 0.01 | 0.04 | 0.04 | 93 | 1023.3 |
| 20260506013503 | 31 | 91 | 0.0 | 2.0 | 0.01 | 0.04 | 0.04 | 93 | 1023.1 |
| 20260506013219 | 31 | 89 | 0.0 | 2.0 | 0.01 | 0.04 | 0.04 | 93 | 1023.0 |
| 20260506012503 | 31 | 88 | 1.0 | 4.0 | 0.01 | 0.04 | 0.04 | 93 | 1022.9 |
| 20260506012003 | 31 | 91 | 1.0 | 6.0 | 0.01 | 0.04 | 0.04 | 93 | 1022.8 |
| 20260506011503 | 31 | 86 | 2.0 | 6.0 | 0.01 | 0.04 | 0.04 | 93 | 1022.8 |
| 20260506011003 | 31 | 85 | 2.0 | 6.0 | 0.01 | 0.04 | 0.04 | 93 | 1022.6 |
| 20260506010503 | 31 | 89 | 2.0 | 6.0 | 0.01 | 0.04 | 0.04 | 93 | 1022.6 |
| 20260506010004 | 32 | 96 | 1.0 | 4.0 | 0.01 | 0.04 | 0.04 | 93 | 1022.6 |
| 20260506005503 | 32 | 109 | 0.0 | 2.0 | 0.01 | 0.04 | 0.04 | 93 | 1022.5 |
| 20260506005003 | 32 | 102 | 0.0 | 2.0 | 0.01 | 0.04 | 0.04 | 93 | 1022.4 |
| 20260506004503 | 31 | 84 | 1.0 | 3.0 | 0.01 | 0.04 | 0.04 | 93 | 1022.5 |
| 20260506004003 | 31 | 84 | 1.0 | 3.0 | 0.00 | 0.03 | 0.03 | 93 | 1022.5 |
| 20260506003503 | 31 | 85 | 1.0 | 3.0 | 0.00 | 0.03 | 0.03 | 93 | 1022.4 |
| 20260506003004 | 31 | 84 | 1.0 | 4.0 | 0.00 | 0.03 | 0.03 | 93 | 1022.3 |
| 20260506002503 | 31 | 83 | 1.0 | 6.0 | 0.00 | 0.03 | 0.03 | 93 | 1022.4 |
| 20260506002004 | 31 | 77 | 1.0 | 6.0 | 0.00 | 0.03 | 0.03 | 93 | 1022.4 |
| 20260506001719 | 31 | 74 | 1.0 | 5.0 | 0.00 | 0.03 | 0.03 | 93 | 1022.3 |
| 20260506001003 | 31 | 61 | 1.0 | 3.0 | 0.01 | 0.03 | 0.03 | 93 | 1022.3 |
| 20260506000503 | 31 | 51 | 1.0 | 3.0 | 0.01 | 0.03 | 0.03 | 93 | 1022.5 |
| 20260506000003 | 31 | 53 | 1.0 | 3.0 | 0.01 | 0.03 | 0.03 | 93 | 1022.6 |
| 20260505235503 | 31 | 58 | 1.0 | 3.0 | 0.01 | 0.03 | 0.03 | 93 | 1022.6 |
| 20260505235003 | 31 | 63 | 1.0 | 2.0 | 0.01 | 0.03 | 0.03 | 93 | 1022.5 |
| 20260505234716 | 31 | 62 | 1.0 | 2.0 | 0.01 | 0.03 | 0.03 | 93 | 1022.6 |
| 20260505234220 | 31 | 60 | 0.0 | 2.0 | 0.01 | 0.03 | 0.03 | 93 | 1022.6 |
| 20260505233503 | 31 | 39 | 0.0 | 2.0 | 0.01 | 0.03 | 0.03 | 93 | 1022.8 |
| 20260505233003 | 31 | 88 | 0.0 | 2.0 | 0.01 | 0.03 | 0.03 | 93 | 1022.7 |
| 20260505232503 | 31 | 88 | 1.0 | 3.0 | 0.01 | 0.03 | 0.03 | 93 | 1022.9 |
| 20260505232003 | 31 | 88 | 1.0 | 3.0 | 0.01 | 0.03 | 0.03 | 92 | 1023.0 |
| 20260505231503 | 31 | 86 | 1.0 | 3.0 | 0.01 | 0.02 | 0.02 | 92 | 1023.0 |
| 20260505231003 | 31 | 88 | 1.0 | 3.0 | 0.01 | 0.02 | 0.02 | 92 | 1023.1 |
| 20260505230720 | 31 | 89 | 1.0 | 3.0 | 0.01 | 0.02 | 0.02 | 92 | 1023.0 |
| 20260505230003 | 31 | 87 | 1.0 | 3.0 | 0.01 | 0.02 | 0.02 | 92 | 1023.0 |
| 20260505225721 | 31 | 87 | 1.0 | 3.0 | 0.01 | 0.02 | 0.02 | 92 | 1023.1 |
| 20260505225003 | 31 | 87 | 1.0 | 3.0 | 0.01 | 0.02 | 0.02 | 92 | 1023.3 |
| 20260505224503 | 30 | 86 | 1.0 | 3.0 | 0.01 | 0.02 | 0.02 | 92 | 1023.2 |
| 20260505224003 | 30 | 85 | 1.0 | 3.0 | 0.01 | 0.02 | 0.02 | 92 | 1023.3 |
| 20260505223503 | 31 | 87 | 1.0 | 3.0 | 0.01 | 0.02 | 0.02 | 92 | 1023.2 |
| 20260505223003 | 31 | 86 | 1.0 | 5.0 | 0.02 | 0.02 | 0.02 | 92 | 1023.3 |
| 20260505222503 | 31 | 85 | 1.0 | 5.0 | 0.02 | 0.02 | 0.02 | 92 | 1023.4 |
| 20260505222003 | 31 | 91 | 2.0 | 4.0 | 0.02 | 0.02 | 0.02 | 92 | 1023.3 |
| 20260505221503 | 31 | 94 | 2.0 | 4.0 | 0.01 | 0.01 | 0.01 | 92 | 1023.5 |
| 20260505221003 | 31 | 92 | 2.0 | 4.0 | 0.01 | 0.01 | 0.01 | 92 | 1023.5 |
| 20260505220503 | 31 | 89 | 1.0 | 4.0 | 0.01 | 0.01 | 0.01 | 92 | 1023.4 |
| 20260505220003 | 31 | 97 | 1.0 | 7.0 | 0.01 | 0.01 | 0.01 | 92 | 1023.4 |
| 20260505215503 | 31 | 106 | 2.0 | 7.0 | 0.01 | 0.01 | 0.01 | 92 | 1023.2 |
| 20260505215220 | 31 | 108 | 2.0 | 5.0 | 0.01 | 0.01 | 0.01 | 92 | 1023.4 |
| 20260505214503 | 31 | 95 | 1.0 | 3.0 | 0.01 | 0.01 | 0.01 | 92 | 1023.5 |
| 20260505214003 | 31 | 97 | 1.0 | 4.0 | 0.01 | 0.01 | 0.01 | 92 | 1023.5 |
| 20260505213719 | 31 | 95 | 1.0 | 4.0 | 0.01 | 0.01 | 0.01 | 92 | 1023.5 |
| 20260505213003 | 31 | 91 | 1.0 | 4.0 | 0.00 | 0.00 | 0.00 | 92 | 1023.7 |
| 20260505212503 | 31 | 89 | 1.0 | 4.0 | 0.00 | 0.00 | 0.00 | 92 | 1023.7 |
| 20260505212003 | 31 | 93 | 2.0 | 4.0 | 0.00 | 0.00 | 0.00 | 91 | 1023.8 |
| 20260505211503 | 31 | 92 | 1.0 | 4.0 | 0.00 | 0.00 | 0.00 | 91 | 1023.9 |
| 20260505211003 | 31 | 82 | 1.0 | 3.0 | 0.00 | 0.00 | 0.00 | 92 | 1024.0 |
| 20260505210716 | 31 | 82 | 1.0 | 3.0 | 0.00 | 0.00 | 0.00 | 92 | 1023.9 |
| 20260505210003 | 32 | 86 | 1.0 | 4.0 | 0.00 | 0.00 | 0.00 | 92 | 1024.0 |
| 20260505205503 | 32 | 95 | 1.0 | 4.0 | 0.00 | 0.00 | 0.00 | 91 | 1024.1 |
| 20260505205220 | 32 | 101 | 1.0 | 4.0 | 0.00 | 0.00 | 0.00 | 91 | 1024.1 |
| 20260505204503 | 32 | 87 | 1.0 | 3.0 | 0.00 | 0.00 | 0.00 | 91 | 1024.2 |
| 20260505204003 | 32 | 86 | 1.0 | 3.0 | 0.00 | 0.00 | 0.00 | 91 | 1024.3 |
| 20260505203719 | 32 | 85 | 1.0 | 3.0 | 0.00 | 0.00 | 0.00 | 91 | 1024.5 |
| 20260505203003 | 32 | 89 | 1.0 | 3.0 | 0.00 | 0.00 | 0.00 | 91 | 1024.4 |
| 20260505202503 | 32 | 91 | 1.0 | 3.0 | 0.00 | 0.00 | 0.00 | 91 | 1024.6 |
| 20260505202003 | 32 | 87 | 1.0 | 3.0 | 0.00 | 0.00 | 0.00 | 91 | 1024.6 |
| 20260505201721 | 32 | 85 | 1.0 | 2.0 | 0.00 | 0.00 | 0.00 | 91 | 1024.6 |
| 20260505201003 | 32 | 97 | 1.0 | 4.0 | 0.00 | 0.00 | 0.00 | 91 | 1024.6 |
| 20260505200503 | 32 | 105 | 1.0 | 4.0 | 0.00 | 0.00 | 0.00 | 92 | 1024.5 |
| 20260505200003 | 32 | 94 | 2.0 | 7.0 | 0.00 | 0.00 | 0.00 | 92 | 1024.6 |
| 20260505195503 | 32 | 82 | 1.0 | 7.0 | 0.00 | 0.00 | 0.00 | 91 | 1024.6 |
| 20260505195003 | 33 | 73 | 1.0 | 3.0 | 0.00 | 0.00 | 0.00 | 92 | 1024.6 |
| 20260505194503 | 33 | 79 | 1.0 | 3.0 | 0.00 | 0.00 | 0.00 | 92 | 1024.7 |
| 20260505194003 | 33 | 85 | 1.0 | 3.0 | 0.00 | 0.00 | 0.00 | 91 | 1024.7 |
| 20260505193720 | 33 | 86 | 1.0 | 4.0 | 0.00 | 0.00 | 0.00 | 91 | 1024.7 |
| 20260505193003 | 33 | 93 | 1.0 | 4.0 | 0.00 | 0.00 | 0.00 | 91 | 1024.7 |
| 20260505192503 | 32 | 95 | 1.0 | 3.0 | 0.00 | 0.00 | 0.00 | 91 | 1024.8 |
| 20260505192003 | 33 | 96 | 1.0 | 3.0 | 0.00 | 0.00 | 0.00 | 91 | 1024.8 |
| 20260505191503 | 33 | 93 | 2.0 | 6.0 | 0.00 | 0.00 | 0.00 | 91 | 1024.7 |
| 20260505191003 | 33 | 88 | 3.0 | 6.0 | 0.00 | 0.00 | 0.00 | 91 | 1024.6 |
| 20260505190503 | 33 | 92 | 3.0 | 7.0 | 0.00 | 0.00 | 0.00 | 91 | 1024.6 |
| 20260505190221 | 33 | 95 | 3.0 | 8.0 | 0.00 | 0.00 | 0.00 | 91 | 1024.7 |
| 20260505185503 | 33 | 93 | 3.0 | 8.0 | 0.00 | 0.00 | 0.00 | 90 | 1024.5 |
| 20260505185003 | 33 | 101 | 3.0 | 7.0 | 0.00 | 0.00 | 0.00 | 90 | 1024.5 |
| 20260505184503 | 33 | 105 | 3.0 | 10.0 | 0.00 | 0.00 | 0.00 | 90 | 1024.6 |
| 20260505184003 | 33 | 100 | 3.0 | 10.0 | 0.00 | 0.00 | 0.00 | 90 | 1024.6 |
| 20260505183721 | 34 | 95 | 3.0 | 9.0 | 0.00 | 0.00 | 0.00 | 90 | 1024.6 |
| 20260505183003 | 34 | 89 | 4.0 | 9.0 | 0.00 | 0.00 | 0.00 | 90 | 1024.5 |
| 20260505182503 | 34 | 88 | 4.0 | 7.0 | 0.00 | 0.00 | 0.00 | 90 | 1024.6 |
| 20260505182003 | 34 | 90 | 3.0 | 7.0 | 0.00 | 0.00 | 0.00 | 89 | 1024.6 |
| 20260505181717 | 34 | 90 | 3.0 | 7.0 | 0.00 | 0.00 | 0.00 | 89 | 1024.7 |
| 20260505181003 | 34 | 100 | 2.0 | 6.0 | 0.00 | 0.00 | 0.00 | 89 | 1024.8 |
| 20260505180718 | 34 | 99 | 3.0 | 8.0 | 0.00 | 0.00 | 0.00 | 89 | 1024.8 |
| 20260505180003 | 34 | 88 | 3.0 | 8.0 | 0.00 | 0.00 | 0.00 | 88 | 1024.8 |
| 20260505175504 | 35 | 89 | 4.0 | 8.0 | 0.00 | 0.00 | 0.00 | 88 | 1024.9 |
| 20260505175003 | 35 | 89 | 3.0 | 8.0 | 0.00 | 0.00 | 0.00 | 87 | 1024.9 |
| 20260505174720 | 36 | 93 | 3.0 | 7.0 | 0.00 | 0.00 | 0.00 | 87 | 1024.9 |
| 20260505174003 | 36 | 99 | 3.0 | 9.0 | 0.00 | 0.00 | 0.00 | 86 | 1024.9 |
| 20260505173503 | 36 | 97 | 3.0 | 8.0 | 0.00 | 0.00 | 0.00 | 86 | 1024.9 |
| 20260505173003 | 37 | 102 | 4.0 | 8.0 | 0.00 | 0.00 | 0.00 | 86 | 1025.0 |
| 20260505172503 | 37 | 103 | 3.0 | 8.0 | 0.00 | 0.00 | 0.00 | 86 | 1025.2 |
| 20260505172003 | 37 | 95 | 3.0 | 7.0 | 0.00 | 0.00 | 0.00 | 86 | 1025.2 |
| 20260505171503 | 36 | 92 | 3.0 | 9.0 | 0.00 | 0.00 | 0.00 | 86 | 1025.1 |
| 20260505171221 | 36 | 91 | 3.0 | 9.0 | 0.00 | 0.00 | 0.00 | 85 | 1025.1 |
| 20260505170503 | 36 | 87 | 3.0 | 8.0 | 0.00 | 0.00 | 0.00 | 86 | 1025.2 |
| 20260505170003 | 36 | 86 | 3.0 | 7.0 | 0.00 | 0.00 | 0.00 | 88 | 1025.2 |
| 20260505165503 | 36 | 90 | 3.0 | 7.0 | 0.00 | 0.00 | 0.00 | 87 | 1025.4 |
| 20260505165003 | 36 | 97 | 3.0 | 7.0 | 0.00 | 0.00 | 0.00 | 87 | 1025.5 |
| 20260505164503 | 36 | 98 | 3.0 | 7.0 | 0.00 | 0.00 | 0.00 | 87 | 1025.4 |
| 20260505164003 | 36 | 101 | 3.0 | 8.0 | 0.00 | 0.00 | 0.00 | 86 | 1025.6 |
| 20260505163503 | 36 | 103 | 4.0 | 8.0 | 0.00 | 0.00 | 0.00 | 86 | 1025.7 |
| 20260505163220 | 36 | 102 | 4.0 | 8.0 | 0.00 | 0.00 | 0.00 | 86 | 1025.7 |
| 20260505162503 | 36 | 101 | 3.0 | 7.0 | 0.00 | 0.00 | 0.00 | 86 | 1025.6 |
| 20260505162003 | 36 | 99 | 3.0 | 7.0 | 0.00 | 0.00 | 0.00 | 85 | 1025.6 |
| 20260505161503 | 36 | 95 | 3.0 | 7.0 | 0.00 | 0.00 | 0.00 | 85 | 1025.6 |
| 20260505161003 | 36 | 92 | 3.0 | 7.0 | 0.00 | 0.00 | 0.00 | 85 | 1025.8 |
| 20260505160503 | 36 | 90 | 3.0 | 7.0 | 0.00 | 0.00 | 0.00 | 85 | 1025.8 |
| 20260505153003 | 36 | 98 | 3.0 | 7.0 | 0.00 | 0.00 | 0.00 | 85 | 1025.9 |
| 20260505152718 | 36 | 98 | 3.0 | 7.0 | 0.00 | 0.00 | 0.00 | 85 | 1025.9 |
| 20260505152003 | 36 | 94 | 3.0 | 7.0 | 0.00 | 0.00 | 0.00 | 85 | 1025.9 |
| 20260505151503 | 36 | 98 | 3.0 | 8.0 | 0.00 | 0.00 | 0.00 | 85 | 1025.9 |
| 20260505151217 | 36 | 97 | 3.0 | 8.0 | 0.00 | 0.00 | 0.00 | 86 | 1026.0 |
| 20260505150503 | 36 | 87 | 3.0 | 7.0 | 0.00 | 0.00 | 0.00 | 86 | 1026.0 |
| 20260505140503 | 36 | 96 | 2.0 | 6.0 | 0.00 | 0.00 | 0.00 | 86 | 1026.4 |
| 20260505125003 | 34 | 0 | 0.0 | 0.0 | 0.00 | 0.00 | 0.00 | 89 | 1025.9 |
| 20260505124719 | 34 | 0 | 0.0 | 0.0 | 0.00 | 0.00 | 0.00 | 88 | 1026.0 |
| 20260505124003 | 34 | 0 | 0.0 | 0.0 | 0.00 | 0.00 | 0.00 | 88 | 1025.8 |
| 20260505123719 | 34 | 0 | 0.0 | 0.0 | 0.00 | 0.00 | 0.00 | 88 | 1025.8 |
| 20260505123003 | 33 | 0 | 0.0 | 0.0 | 0.00 | 0.00 | 0.00 | 88 | 1025.6 |
| 20260505122503 | 33 | 0 | 0.0 | 0.0 | 0.00 | 0.00 | 0.00 | 87 | 1025.7 |
| 20260505122003 | 33 | 0 | 0.0 | 0.0 | 0.00 | 0.00 | 0.00 | 87 | 1025.6 |
| 20260505121503 | 34 | 0 | 0.0 | 0.0 | 0.00 | 0.00 | 0.00 | 87 | 1025.5 |
| 20260505121003 | 34 | 0 | 0.0 | 0.0 | 0.00 | 0.00 | 0.00 | 86 | 1025.4 |
| 20260505120503 | 34 | 0 | 0.0 | 0.0 | 0.00 | 0.00 | 0.00 | 86 | 1025.6 |
| 20260505120004 | 34 | 0 | 0.0 | 0.0 | 0.00 | 0.00 | 0.00 | 86 | 1025.6 |
| 20260505115503 | 34 | 0 | 0.0 | 0.0 | 0.00 | 0.00 | 0.00 | 86 | 1025.6 |
| 20260505115003 | 34 | 0 | 0.0 | 0.0 | 0.00 | 0.00 | 0.00 | 86 | 1025.4 |
| 20260505114503 | 35 | 0 | 0.0 | 0.0 | 0.00 | 0.00 | 0.00 | 86 | 1025.5 |
| 20260505114003 | 35 | 0 | 0.0 | 0.0 | 0.00 | 0.00 | 0.00 | 86 | 1025.5 |
| 20260505113503 | 35 | 0 | 0.0 | 0.0 | 0.00 | 0.00 | 0.00 | 86 | 1025.5 |
| 20260505113218 | 35 | 0 | 0.0 | 0.0 | 0.00 | 0.00 | 0.00 | 85 | 1025.6 |
| 20260505112503 | 35 | 0 | 0.0 | 0.0 | 0.00 | 0.00 | 0.00 | 85 | 1025.7 |
| 20260505112003 | 35 | 0 | 0.0 | 0.0 | 0.00 | 0.00 | 0.00 | 85 | 1025.7 |
| 20260505111503 | 35 | 0 | 0.0 | 0.0 | 0.00 | 0.00 | 0.00 | 84 | 1025.8 |
| 20260505111003 | 35 | 18 | 0.0 | 2.0 | 0.00 | 0.00 | 0.00 | 84 | 1025.9 |
| 20260505110718 | 36 | 18 | 0.0 | 2.0 | 0.00 | 0.00 | 0.00 | 84 | 1025.9 |
| 20260505102003 | 37 | 0 | 0.0 | 0.0 | 0.00 | 0.00 | 0.00 | 81 | 1026.4 |
| 20260505101503 | 37 | 0 | 0.0 | 0.0 | 0.00 | 0.00 | 0.00 | 81 | 1026.2 |
| 20260505101220 | 37 | 0 | 0.0 | 0.0 | 0.00 | 0.00 | 0.00 | 80 | 1026.2 |
| 20260505100503 | 37 | 0 | 0.0 | 0.0 | 0.00 | 0.00 | 0.00 | 80 | 1026.2 |
| 20260505100003 | 37 | 0 | 0.0 | 0.0 | 0.00 | 0.00 | 0.00 | 80 | 1026.1 |
| 20260505095503 | 37 | 0 | 0.0 | 0.0 | 0.00 | 0.00 | 0.00 | 79 | 1026.3 |
| 20260505095003 | 37 | 0 | 0.0 | 0.0 | 0.00 | 0.00 | 0.00 | 79 | 1026.3 |
| 20260505094503 | 37 | 0 | 0.0 | 0.0 | 0.00 | 0.00 | 0.00 | 79 | 1026.3 |
| 20260505094003 | 38 | 0 | 0.0 | 0.0 | 0.00 | 0.00 | 0.00 | 79 | 1026.4 |
| 20260505093503 | 38 | 29 | 0.0 | 1.0 | 0.00 | 0.00 | 0.00 | 79 | 1026.2 |
| 20260505093003 | 38 | 30 | 0.0 | 2.0 | 0.00 | 0.00 | 0.00 | 78 | 1026.2 |
| 20260505092503 | 38 | 26 | 0.0 | 2.0 | 0.00 | 0.00 | 0.00 | 78 | 1026.3 |
| 20260505092003 | 38 | 20 | 0.0 | 1.0 | 0.00 | 0.00 | 0.00 | 78 | 1026.4 |
| 20260505091503 | 38 | 19 | 0.0 | 1.0 | 0.00 | 0.00 | 0.00 | 78 | 1026.5 |
| 20260505091003 | 38 | 21 | 0.0 | 1.0 | 0.00 | 0.00 | 0.00 | 77 | 1026.4 |
| 20260505090503 | 38 | 21 | 0.0 | 2.0 | 0.00 | 0.00 | 0.00 | 77 | 1026.4 |
| 20260505090217 | 38 | 20 | 0.0 | 2.0 | 0.00 | 0.00 | 0.00 | 77 | 1026.3 |
| 20260505085503 | 38 | 20 | 0.0 | 2.0 | 0.00 | 0.00 | 0.00 | 76 | 1026.3 |
| 20260505085003 | 38 | 20 | 0.0 | 2.0 | 0.00 | 0.00 | 0.00 | 76 | 1026.2 |
| 20260505084503 | 38 | 20 | 0.0 | 2.0 | 0.00 | 0.00 | 0.00 | 75 | 1026.2 |
| 20260505084003 | 38 | 19 | 0.0 | 1.0 | 0.00 | 0.00 | 0.00 | 74 | 1026.5 |
| 20260505083503 | 39 | 19 | 0.0 | 2.0 | 0.00 | 0.00 | 0.00 | 74 | 1026.5 |
| 20260505083003 | 39 | 19 | 0.0 | 2.0 | 0.00 | 0.00 | 0.00 | 72 | 1026.6 |
| 20260505082718 | 39 | 0 | 0.0 | 0.0 | 0.00 | 0.00 | 0.00 | 73 | 1026.6 |
| 20260505082003 | 39 | 0 | 0.0 | 0.0 | 0.00 | 0.00 | 0.00 | 72 | 1026.6 |
| 20260505081719 | 39 | 0 | 0.0 | 0.0 | 0.00 | 0.00 | 0.00 | 72 | 1026.7 |
| 20260505081217 | 40 | 0 | 0.0 | 0.0 | 0.00 | 0.00 | 0.00 | 70 | 1026.8 |
| 20260505080503 | 40 | 0 | 0.0 | 0.0 | 0.00 | 0.00 | 0.00 | 70 | 1026.7 |
| 20260505080003 | 40 | 76 | 0.0 | 2.0 | 0.00 | 0.00 | 0.00 | 70 | 1026.7 |
| 20260505075503 | 40 | 81 | 0.0 | 2.0 | 0.00 | 0.00 | 0.00 | 67 | 1026.8 |
| 20260505075003 | 40 | 83 | 0.0 | 2.0 | 0.00 | 0.00 | 0.00 | 64 | 1026.8 |
| 20260505074716 | 40 | 83 | 0.0 | 2.0 | 0.00 | 0.00 | 0.00 | 63 | 1026.8 |
| 20260505074220 | 40 | 83 | 0.0 | 1.0 | 0.00 | 0.00 | 0.00 | 62 | 1026.9 |
| 20260505073503 | 41 | 83 | 1.0 | 3.0 | 0.00 | 0.00 | 0.00 | 63 | 1027.0 |
| 20260505073003 | 41 | 83 | 0.0 | 2.0 | 0.00 | 0.00 | 0.00 | 59 | 1026.9 |
| 20260505072503 | 41 | 83 | 0.0 | 2.0 | 0.00 | 0.00 | 0.00 | 61 | 1027.0 |
| 20260505072003 | 42 | 87 | 0.0 | 2.0 | 0.00 | 0.00 | 0.00 | 60 | 1027.0 |
| 20260505071503 | 42 | 87 | 0.0 | 2.0 | 0.00 | 0.00 | 0.00 | 57 | 1027.1 |
| 20260505071003 | 43 | 0 | 0.0 | 0.0 | 0.00 | 0.00 | 0.00 | 60 | 1027.1 |
| 20260505070503 | 43 | 0 | 0.0 | 0.0 | 0.00 | 0.00 | 0.00 | 56 | 1027.3 |
| 20260505070003 | 44 | 0 | 0.0 | 0.0 | 0.00 | 0.00 | 0.00 | 54 | 1027.2 |
| 20260505065503 | 44 | 0 | 0.0 | 0.0 | 0.00 | 0.00 | 0.00 | 53 | 1027.1 |
| 20260505065003 | 44 | 0 | 0.0 | 0.0 | 0.00 | 0.00 | 0.00 | 52 | 1027.0 |
| 20260505064503 | 45 | 91 | 0.0 | 4.0 | 0.00 | 0.00 | 0.00 | 51 | 1027.1 |
| 20260505064003 | 45 | 63 | 1.0 | 4.0 | 0.00 | 0.00 | 0.00 | 46 | 1027.0 |
| 20260505063718 | 46 | 39 | 1.0 | 4.0 | 0.00 | 0.00 | 0.00 | 46 | 1027.0 |
| 20260505063221 | 46 | 246 | 1.0 | 4.0 | 0.00 | 0.00 | 0.00 | 41 | 1027.0 |
| 20260505062503 | 46 | 299 | 1.0 | 3.0 | 0.00 | 0.00 | 0.00 | 40 | 1026.9 |
| 20260505062003 | 46 | 326 | 2.0 | 9.0 | 0.00 | 0.00 | 0.00 | 40 | 1026.8 |
| 20260505061503 | 46 | 318 | 2.0 | 9.0 | 0.00 | 0.00 | 0.00 | 39 | 1027.1 |
| 20260505061003 | 46 | 313 | 2.0 | 7.0 | 0.00 | 0.00 | 0.00 | 39 | 1027.1 |
| 20260505060503 | 46 | 325 | 2.0 | 9.0 | 0.00 | 0.00 | 0.00 | 39 | 1027.1 |
| 20260505060219 | 46 | 326 | 2.0 | 9.0 | 0.00 | 0.00 | 0.00 | 39 | 1027.1 |
| 20260505055717 | 46 | 327 | 2.0 | 9.0 | 0.00 | 0.00 | 0.00 | 40 | 1027.0 |
| 20260505055220 | 46 | 316 | 2.0 | 9.0 | 0.00 | 0.00 | 0.00 | 40 | 1027.0 |
| 20260505054503 | 47 | 315 | 4.0 | 12.0 | 0.00 | 0.00 | 0.00 | 40 | 1027.2 |
| 20260505054003 | 47 | 318 | 5.0 | 14.0 | 0.00 | 0.00 | 0.00 | 40 | 1027.2 |
| 20260505053503 | 47 | 321 | 6.0 | 14.0 | 0.00 | 0.00 | 0.00 | 40 | 1027.0 |
| 20260505053003 | 47 | 321 | 6.0 | 13.0 | 0.00 | 0.00 | 0.00 | 41 | 1027.0 |
| 20260505052503 | 47 | 309 | 7.0 | 15.0 | 0.00 | 0.00 | 0.00 | 42 | 1027.0 |
| 20260505052003 | 47 | 311 | 7.0 | 15.0 | 0.00 | 0.00 | 0.00 | 42 | 1027.0 |
| 20260505051503 | 47 | 311 | 6.0 | 12.0 | 0.00 | 0.00 | 0.00 | 43 | 1027.0 |
| 20260505051003 | 47 | 309 | 5.0 | 16.0 | 0.00 | 0.00 | 0.00 | 44 | 1026.9 |
| 20260505050503 | 47 | 316 | 6.0 | 16.0 | 0.00 | 0.00 | 0.00 | 44 | 1027.0 |
| 20260505041503 | 47 | 320 | 7.0 | 14.0 | 0.00 | 0.00 | 0.00 | 48 | 1026.9 |
| 20260505041003 | 47 | 319 | 6.0 | 17.0 | 0.00 | 0.00 | 0.00 | 48 | 1026.8 |
| 20260505040503 | 47 | 313 | 6.0 | 17.0 | 0.00 | 0.00 | 0.00 | 48 | 1026.8 |
| 20260505040220 | 47 | 310 | 6.0 | 17.0 | 0.00 | 0.00 | 0.00 | 48 | 1026.7 |